Location: Mentone
(34.5413°N, 85.5351°W)
Time: 16:12:01
(UTC-05:00)

Cosmos 2026 Rocket - Visible Passes

Search period start: 23 July 2016 00:00
Search period end: 02 August 2016 00:00
Orbit: 941 x 1000 km, 82.9° (Epoch: 23 July)

Date Brightness Start Highest point End Pass type
(mag) Time Alt. Az. Time Alt. Az. Time Alt. Az.
23 Jul 6.6 03:15:30 10° NE 03:19:08 16° ENE 03:22:44 10° ESE visible
23 Jul 4.0 04:58:39 10° NNW 05:04:57 67° W 05:11:08 10° S visible
24 Jul 5.9 03:38:03 10° NNE 03:43:28 29° ENE 03:48:47 10° SE visible
25 Jul 4.8 04:01:25 10° N 04:07:37 53° E 04:13:40 10° SSE visible
26 Jul 6.7 02:43:27 10° NE 02:45:32 12° ENE 02:47:37 10° E visible
26 Jul 4.0 04:25:13 10° N 04:31:36 85° W 04:37:49 10° S visible
27 Jul 6.1 03:05:07 10° NNE 03:09:57 22° ENE 03:14:42 10° SE visible
27 Jul 4.3 04:49:25 10° NNW 04:55:24 46° W 05:01:18 10° SSW visible
28 Jul 5.2 03:28:13 10° N 03:34:09 41° ENE 03:39:58 10° SSE visible
28 Jul 5.1 05:14:07 10° NNW 05:19:04 25° W 05:23:59 10° SW visible
29 Jul 4.1 03:51:52 10° N 03:58:13 75° E 04:04:24 10° S visible
30 Jul 6.3 02:32:22 10° NNE 02:36:23 17° ENE 02:40:20 10° ESE visible
30 Jul 4.0 04:15:54 10° NNW 04:22:05 60° W 04:27:46 12° S visible
31 Jul 5.5 02:55:08 10° NNE 03:00:41 32° ENE 03:05:59 11° SE visible
31 Jul 4.7 04:40:21 10° NNW 04:45:49 32° W 04:50:29 13° SW visible
01 Aug 4.4 03:18:34 10° N 03:24:47 58° E 03:28:50 22° SSE visible
01 Aug 5.5 05:05:35 10° NW 05:09:24 17° W 05:13:12 10° WSW visible
